This demonstration page uses our WeatherBlox Daily Observations layout. Learn more.

Left ArrowRight Arrow

Hourly Observations for March 27, 2021

Temp ( °F °C ) Dew Point ( °F °C ) Humidity (%) Winds ( mph kmh ) Pressure ( in mb ) Visibility ( mi km ) Precip ( " mm )
12:51 am 00:51 Cloudy 50 10 34 1.1 54 54 WNW 5 7 29.93 1014 10 16.0934 0 0
1:51 am 01:51 Cloudy 50 10 33 0.6 52 52 NW 6 9 29.92 1013 10 16.0934 0 0
2:51 am 02:51 Partly Cloudy 49 9.4 33 0.6 55 55 NW 12 19 29.92 1013 10 16.0934 0 0
3:51 am 03:51 Clear 44 6.7 33 0.6 65 65 W 8 13 29.93 1014 10 16.0934 0 0
4:51 am 04:51 Partly Cloudy 42 5.6 34 1.1 73 73 NW 9 15 29.96 1015 10 16.0934 0 0
5:51 am 05:51 Mostly Cloudy 47 8.3 34 1.1 61 61 NW 13 20 29.98 1015 10 16.0934 0 0
6:51 am 06:51 Cloudy 44 6.7 34 1.1 68 68 WNW 9 15 30.01 1016 10 16.0934 0 0
7:51 am 07:51 Cloudy 49 9.4 35 1.7 59 59 WNW 9 15 30.04 1017 10 16.0934 0 0
8:51 am 08:51 Sunny 52 11.1 36 2.2 55 55 W 14 22 30.06 1018 10 16.0934 0 0
9:51 am 09:51 Sunny 56 13.3 35 1.7 46 46 WNW 12 19 30.07 1018 10 16.0934 0 0
10:51 am 10:51 Sunny 59 15 34 1.1 39 39 WNW 12 19 30.07 1018 10 16.0934 0 0
11:51 am 11:51 Sunny 62 16.7 32 0 32 32 WNW 15 24 30.05 1018 10 16.0934 0 0
12:51 pm 12:51 Sunny 65 18.3 31 -0.6 28 28 NW 10 17 30.04 1017 10 16.0934 0 0
1:51 pm 13:51 Sunny 67 19.4 29 -1.7 24 24 W 10 17 30.03 1017 10 16.0934 0 0
2:51 pm 14:51 Sunny 69 20.6 27 -2.8 21 21 WNW 17 28 30.02 1017 10 16.0934 0 0
3:51 pm 15:51 Sunny 70 21.1 27 -2.8 20 20 WSW 15 24 30.02 1017 10 16.0934 0 0
4:51 pm 16:51 Sunny 71 21.7 25 -3.9 18 18 WNW 16 26 30.02 1017 10 16.0934 0 0
5:51 pm 17:51 Sunny 69 20.6 23 -5 17 17 W 21 33 30.02 1017 10 16.0934 0 0
6:51 pm 18:51 Clear 66 18.9 21 -6.1 18 18 W 15 24 30.06 1018 10 16.0934 0 0
7:51 pm 19:51 Clear 63 17.2 23 -5 22 22 WNW 16 26 30.08 1019 10 16.0934 0 0
8:51 pm 20:51 Clear 60 15.6 24 -4.4 25 25 NW 8 13 30.12 1020 10 16.0934 0 0
9:51 pm 21:51 Clear 62 16.7 22 -5.6 21 21 VRB 3 6 30.13 1020 10 16.0934 0 0
10:51 pm 22:51 Clear 60 15.6 24 -4.4 25 25 WSW 8 13 30.15 1021 10 16.0934 0 0
11:51 pm 23:51 Clear 53 11.7 24 -4.4 32 32 NNW 5 7 30.18 1022 10 16.0934 0 0

Powered by AerisWeather